Weather History for Morganton, NC

Change the Weather History Date:

Wednesday, August 21, 2013

  Actual Average (KHKY) Record (KHKY)
Temperature  
Mean Temperature 72 °F -  
Max Temperature 79 °F 84 °F 102 °F (1983)
Min Temperature 64 °F 65 °F 55 °F (1991)
Cooling Degree Days 6    
Growing Degree Days 22 (Base 50)    
Moisture  
Dew Point 68 °F    
Average Humidity 93    
Maximum Humidity 100    
Minimum Humidity 72    
Precipitation  
Precipitation 0.00 in - - ()
Sea Level Pressure  
Sea Level Pressure 30.26 in    
Wind  
Wind Speed 1 mph (SW)    
Max Wind Speed 6 mph    
Max Gust Speed -    
Visibility 7 miles    
Events Fog , Rain    
Averages and records for this station are not official NWS values.
T = Trace of Precipitation, MM = Missing Value Source: NWS Daily Summary

Daily Weather History Graph

Daily Weather History Graph

Search for Another Location

Airport:

Trip Planner

Search our weather history database for the weather conditions in past years. The results will help you decide how hot, cold, wet, or windy it might be!

Date:

Astronomy

Aug. 21, 2013 Rise Set
Actual Time 6:50 AM EDT 8:08 PM EDT
Civil Twilight 6:23 AM EDT 8:35 PM EDT
Nautical Twilight 5:51 AM EDT 9:06 PM EDT
Astronomical Twilight 5:18 AM EDT 9:40 PM EDT
Moon 8:20 PM EDT 7:25 AM EDT
Length of Visible Light 14h 11m
Length of Day
13h 18m
Full, 100% of the Moon is Illuminated
Aug 21
Full
Aug 28
Last Quarter
Sep 5
New
Sep 12
First Quarter
Sep 19
Full

Hourly Weather History & Observations

Time (EDT) Temp. Dew Point Humidity Pressure Visibility Wind Dir Wind Speed Gust Speed Precip Events Conditions
12:15 AM 65.5 °F 65.5 °F 100% 30.28 in 10.0 mi Calm Calm - N/A   Clear
12:35 AM 65.8 °F 65.8 °F 100% 30.28 in 7.0 mi Calm Calm - N/A   Clear
12:55 AM 66.7 °F 66.7 °F 100% 30.28 in 7.0 mi Calm Calm - N/A   Clear
1:15 AM 66.7 °F 66.7 °F 100% 30.28 in 10.0 mi Calm Calm - N/A   Clear
1:35 AM 65.1 °F 65.1 °F 100% 30.28 in 7.0 mi Calm Calm - N/A   Clear
1:55 AM 65.5 °F 65.5 °F 100% 30.27 in 4.0 mi Calm Calm - N/A   Clear
2:15 AM 64.6 °F 64.6 °F 100% 30.27 in 0.5 mi Calm Calm - N/A Fog Fog
2:35 AM 64.4 °F 64.4 °F 100% 30.26 in 1.0 mi Calm Calm - N/A   Mostly Cloudy
2:55 AM 64.6 °F 64.6 °F 100% 30.26 in 0.5 mi Calm Calm - N/A Fog Fog
3:15 AM 64.4 °F 64.4 °F 100% 30.26 in 1.0 mi Calm Calm - N/A   Mostly Cloudy
3:35 AM 64.8 °F 64.8 °F 100% 30.25 in 0.8 mi Calm Calm - N/A   Overcast
3:55 AM 65.3 °F 65.3 °F 100% 30.25 in 0.5 mi Calm Calm - N/A Fog Fog
4:15 AM 66.2 °F 66.2 °F 100% 30.25 in 0.8 mi Calm Calm - N/A   Overcast
4:35 AM 65.7 °F 65.7 °F 100% 30.25 in 0.5 mi Calm Calm - N/A Fog Fog
4:55 AM 65.1 °F 65.1 °F 100% 30.25 in 0.5 mi Calm Calm - N/A Fog Fog
5:15 AM 65.5 °F 65.5 °F 100% 30.25 in 0.8 mi Calm Calm - N/A   Overcast
5:35 AM 66.2 °F 66.2 °F 100% 30.26 in 0.8 mi Calm Calm - N/A   Overcast
5:55 AM 65.8 °F 65.8 °F 100% 30.26 in 0.2 mi Calm Calm - N/A Fog Fog
6:15 AM 66.2 °F 66.2 °F 100% 30.27 in 0.8 mi Calm Calm - N/A   Overcast
6:35 AM 65.8 °F 65.8 °F 100% 30.28 in 2.0 mi Calm Calm - N/A   Overcast
6:55 AM 66.2 °F 66.2 °F 100% 30.29 in 7.0 mi Calm Calm - N/A   Overcast
7:15 AM 66.4 °F 66.4 °F 100% 30.29 in 10.0 mi Calm Calm - N/A   Overcast
7:35 AM 66.2 °F 66.2 °F 100% 30.28 in 4.0 mi Calm Calm - N/A Rain Rain
7:55 AM 66.7 °F 66.7 °F 100% 30.28 in 5.0 mi Calm Calm - N/A Rain Light Rain
8:15 AM 66.6 °F 66.6 °F 100% 30.29 in 0.8 mi Calm Calm - N/A Rain Light Rain
8:35 AM 67.1 °F 67.1 °F 100% 30.28 in 0.8 mi Calm Calm - N/A Rain Light Rain
8:55 AM 67.5 °F 67.5 °F 100% 30.29 in 3.0 mi Calm Calm - N/A   Overcast
9:15 AM 68.0 °F 68.0 °F 100% 30.29 in 2.5 mi East 3.5 mph - N/A   Overcast
9:35 AM 68.9 °F 68.9 °F 100% 30.30 in 5.0 mi Calm Calm - N/A   Overcast
9:55 AM 69.1 °F 69.1 °F 100% 30.32 in 7.0 mi SSW 4.6 mph - N/A   Overcast
10:15 AM 69.4 °F 69.4 °F 100% 30.32 in 7.0 mi WSW 3.5 mph - N/A Rain Light Rain
10:35 AM 69.8 °F 69.8 °F 100% 30.32 in 7.0 mi Calm Calm - N/A   Overcast
10:55 AM 70.2 °F 70.2 °F 100% 30.32 in 10.0 mi Calm Calm - N/A   Overcast
11:15 AM 70.2 °F 70.2 °F 100% 30.32 in 7.0 mi Calm Calm - N/A Rain Light Rain
11:35 AM 70.2 °F 70.2 °F 100% 30.32 in 7.0 mi Calm Calm - N/A Rain Light Rain
11:55 AM 70.9 °F 70.7 °F 99% 30.32 in 7.0 mi Calm Calm - N/A Rain Light Rain
12:15 PM 71.6 °F 70.7 °F 97% 30.31 in 7.0 mi WNW 3.5 mph - N/A   Mostly Cloudy
12:35 PM 72.0 °F 70.5 °F 95% 30.31 in 10.0 mi Calm Calm - N/A   Overcast
12:55 PM 72.5 °F 69.8 °F 91% 30.31 in 10.0 mi Calm Calm - N/A   Mostly Cloudy
1:15 PM 73.9 °F 70.2 °F 88% 30.30 in 10.0 mi WSW 3.5 mph - N/A   Scattered Clouds
1:35 PM 75.9 °F 69.3 °F 80% 30.29 in 10.0 mi Calm Calm - N/A   Scattered Clouds
1:55 PM 75.9 °F 68.7 °F 78% 30.29 in 10.0 mi Calm Calm - N/A   Scattered Clouds
2:15 PM 76.6 °F 69.1 °F 77% 30.28 in 10.0 mi SW 3.5 mph - N/A   Clear
2:35 PM 77.0 °F 69.3 °F 77% 30.27 in 10.0 mi Calm Calm - N/A   Clear
2:55 PM 77.2 °F 70.0 °F 78% 30.27 in 10.0 mi SW 4.6 mph - N/A   Clear
3:15 PM 77.2 °F 69.3 °F 76% 30.26 in 10.0 mi Calm Calm - N/A   Clear
3:35 PM 77.2 °F 68.4 °F 74% 30.26 in 10.0 mi Calm Calm - N/A   Clear
3:55 PM 77.0 °F 68.2 °F 74% 30.26 in 10.0 mi WSW 3.5 mph - N/A   Clear
4:15 PM 76.8 °F 68.9 °F 76% 30.26 in 10.0 mi WSW 3.5 mph - N/A   Clear
4:35 PM 76.8 °F 69.8 °F 79% 30.25 in 10.0 mi WSW 3.5 mph - N/A Rain Light Rain
4:55 PM 77.4 °F 69.8 °F 77% 30.24 in 10.0 mi SW 4.6 mph - N/A   Clear
5:15 PM 78.1 °F 70.3 °F 77% 30.23 in 10.0 mi SW 4.6 mph - N/A   Clear
5:35 PM 78.1 °F 68.9 °F 73% 30.22 in 10.0 mi WSW 5.8 mph - N/A   Clear
5:55 PM 78.8 °F 69.1 °F 72% 30.21 in 10.0 mi SSW 5.8 mph - N/A   Clear
6:15 PM 79.0 °F 69.1 °F 72% 30.20 in 10.0 mi SW 5.8 mph - N/A   Clear
6:35 PM 76.6 °F 69.4 °F 78% 30.19 in 10.0 mi SSW 4.6 mph - N/A   Clear
6:55 PM 75.9 °F 70.7 °F 84% 30.21 in 10.0 mi Calm Calm - N/A   Clear
7:15 PM 75.7 °F 70.7 °F 84% 30.21 in 10.0 mi Calm Calm - N/A   Scattered Clouds
7:35 PM 74.7 °F 71.8 °F 91% 30.22 in 10.0 mi Calm Calm - N/A   Mostly Cloudy
7:55 PM 73.6 °F 71.8 °F 94% 30.21 in 10.0 mi Calm Calm - N/A   Scattered Clouds
8:15 PM 72.9 °F 70.9 °F 93% 30.21 in 10.0 mi Calm Calm - N/A   Clear
8:35 PM 71.6 °F 70.9 °F 98% 30.21 in 10.0 mi Calm Calm - N/A   Clear
8:55 PM 71.1 °F 70.7 °F 99% 30.21 in 10.0 mi Calm Calm - N/A   Clear
9:15 PM 70.0 °F 69.8 °F 99% 30.22 in 10.0 mi Calm Calm - N/A   Clear
9:35 PM 68.9 °F 68.7 °F 99% 30.23 in 10.0 mi Calm Calm - N/A   Clear
9:55 PM 68.4 °F 68.2 °F 99% 30.24 in 10.0 mi Calm Calm - N/A   Clear
10:15 PM 68.0 °F 68.0 °F 100% 30.25 in 10.0 mi Calm Calm - N/A   Clear
10:35 PM 67.6 °F 67.6 °F 100% 30.25 in 10.0 mi Calm Calm - N/A   Clear
10:55 PM 67.5 °F 67.5 °F 100% 30.25 in 7.0 mi Calm Calm - N/A   Clear
11:15 PM 66.6 °F 66.6 °F 100% 30.25 in 10.0 mi Calm Calm - N/A   Clear
11:35 PM 66.2 °F 66.2 °F 100% 30.24 in 7.0 mi Calm Calm - N/A   Clear
11:55 PM 65.8 °F 65.8 °F 100% 30.24 in 10.0 mi Calm Calm - N/A   Clear